Location: Bittkow
(50.3000°N, 19.0000°E)
Time: 14:57:01
(UTC+00:00)

SL-08 R/B - Pass Details

Date: 19 September 2020
Orbit: 674 x 739 km, 98.4° (Epoch: 27 October)

Event Time Altitude Azimuth Distance (km) Brightness Sun altitude
Exits shadow 01:47:12 56° 311° (NW) 819 3.5 -24.5°
Drops below altitude 10° 01:51:03 10° 341° (NNW) 2,135 6.0 -24.0°
Sets 01:53:18 0° 344° (NNW) 3,050 6.8 -23.7°
